When you browse on this site, cookies collect data to enhance your experience and personalize the content and advertising you see.
Visit our Privacy Policy to learn more. By continuing to use the site, you agree to this use of cookies and data.
  • en Suisse
  • Liste des pays
  • À 7 jours
  • Température de l'eau
  • Carte météo
  • Widgets météo
  • user-avatar
    Se connecter

    Météo par heure à Kaposvár

    Ce jour, 24 Août, Samedi

    Heure Température Précipitation Vent Pression Humidité
    00:00 +21°C° 0.6 mm 2 m/s 751 mmHg 79%
    01:00 +22°C° 0.6 mm 1 m/s 751 mmHg 83%
    02:00 +21°C° 0.1 mm 2 m/s 751 mmHg 83%
    03:00 +20°C° 0.1 mm 2 m/s 751 mmHg 83%
    04:00 +20°C° 0.1 mm 2 m/s 751 mmHg 83%
    05:00 +21°C° 0.2 mm 3 m/s 751 mmHg 83%
    06:00 +21°C° 0.2 mm 3 m/s 751 mmHg 83%
    07:00 +22°C° 0.2 mm 3 m/s 751 mmHg 82%
    08:00 +25°C° 0 mm 3 m/s 751 mmHg 73%
    09:00 +27°C° 0 mm 3 m/s 751 mmHg 64%
    10:00 +29°C° 0 mm 2 m/s 751 mmHg 55%
    11:00 +31°C° 0 mm 2 m/s 751 mmHg 49%
    12:00 +32°C° 0 mm 2 m/s 750 mmHg 43%
    13:00 +35°C° 0 mm 2 m/s 750 mmHg 37%
    14:00 +35°C° 0 mm 2 m/s 750 mmHg 36%
    15:00 +35°C° 0 mm 2 m/s 749 mmHg 36%
    16:00 +34°C° 0 mm 2 m/s 749 mmHg 35%
    17:00 +31°C° 0 mm 2 m/s 749 mmHg 42%
    18:00 +29°C° 0 mm 3 m/s 749 mmHg 49%
    19:00 +27°C° 0 mm 3 m/s 749 mmHg 56%
    20:00 +26°C° 0 mm 3 m/s 749 mmHg 59%
    21:00 +25°C° 0 mm 2 m/s 749 mmHg 62%
    22:00 +24°C° 0 mm 2 m/s 749 mmHg 65%
    23:00 +24°C° 0 mm 2 m/s 749 mmHg 67%

    Demain, 25 Août, Dimanche

    Heure Température Précipitation Vent Pression Humidité
    00:00 +23°C° 0 mm 2 m/s 749 mmHg 70%
    01:00 +23°C° 0 mm 1 m/s 749 mmHg 72%
    02:00 +23°C° 0 mm 2 m/s 749 mmHg 70%
    03:00 +23°C° 0 mm 2 m/s 749 mmHg 69%
    04:00 +23°C° 0 mm 2 m/s 749 mmHg 68%
    05:00 +24°C° 0 mm 2 m/s 749 mmHg 67%
    06:00 +24°C° 0 mm 3 m/s 749 mmHg 66%
    07:00 +25°C° 0 mm 3 m/s 749 mmHg 66%
    08:00 +27°C° 0.1 mm 3 m/s 749 mmHg 58%
    09:00 +29°C° 0.1 mm 3 m/s 749 mmHg 51%
    10:00 +31°C° 0.1 mm 3 m/s 749 mmHg 44%
    11:00 +34°C° 0 mm 3 m/s 749 mmHg 39%
    12:00 +35°C° 0 mm 4 m/s 749 mmHg 34%
    13:00 +36°C° 0 mm 4 m/s 749 mmHg 29%
    14:00 +36°C° 0 mm 4 m/s 748 mmHg 29%
    15:00 +36°C° 0 mm 4 m/s 748 mmHg 30%
    16:00 +36°C° 0 mm 4 m/s 748 mmHg 31%
    17:00 +33°C° 0.1 mm 4 m/s 747 mmHg 39%
    18:00 +30°C° 0.1 mm 3 m/s 747 mmHg 46%
    19:00 +27°C° 0.1 mm 3 m/s 747 mmHg 54%
    20:00 +26°C° 0.4 mm 3 m/s 748 mmHg 61%
    21:00 +24°C° 0.4 mm 3 m/s 748 mmHg 68%
    22:00 +22°C° 0.4 mm 3 m/s 748 mmHg 74%
    23:00 +22°C° 0.1 mm 3 m/s 748 mmHg 76%

    Après-demain, 26 Août, Lundi

    Heure Température Précipitation Vent Pression Humidité
    00:00 +21°C° 0.1 mm 2 m/s 748 mmHg 77%
    01:00 +21°C° 0.1 mm 2 m/s 748 mmHg 79%
    02:00 +21°C° 0.3 mm 2 m/s 748 mmHg 80%
    03:00 +22°C° 0.3 mm 1 m/s 748 mmHg 81%
    04:00 +22°C° 0.3 mm 1 m/s 748 mmHg 82%
    05:00 +21°C° 0 mm 2 m/s 748 mmHg 81%
    06:00 +23°C° 0 mm 2 m/s 749 mmHg 79%
    07:00 +23°C° 0 mm 2 m/s 749 mmHg 77%
    08:00 +25°C° 0 mm 3 m/s 749 mmHg 69%
    09:00 +27°C° 0 mm 3 m/s 749 mmHg 60%
    10:00 +29°C° 0 mm 3 m/s 749 mmHg 51%
    11:00 +30°C° 0 mm 3 m/s 749 mmHg 48%
    12:00 +31°C° 0 mm 3 m/s 749 mmHg 44%
    13:00 +34°C° 0 mm 4 m/s 749 mmHg 41%
    14:00 +34°C° 0 mm 3 m/s 748 mmHg 39%
    15:00 +34°C° 0 mm 3 m/s 748 mmHg 37%
    16:00 +35°C° 0 mm 3 m/s 747 mmHg 36%
    17:00 +33°C° 0 mm 3 m/s 747 mmHg 42%
    18:00 +29°C° 0 mm 2 m/s 747 mmHg 48%
    19:00 +27°C° 0 mm 1 m/s 747 mmHg 55%
    20:00 +26°C° 0.4 mm 1 m/s 747 mmHg 62%
    21:00 +25°C° 0.4 mm 1 m/s 748 mmHg 68%
    22:00 +23°C° 0.4 mm 1 m/s 748 mmHg 75%
    23:00 +23°C° 0.1 mm 1 m/s 748 mmHg 76%

    27 Août, Mardi

    Heure Température Précipitation Vent Pression Humidité
    00:00 +22°C° 0.1 mm 1 m/s 748 mmHg 77%
    01:00 +22°C° 0.1 mm 1 m/s 748 mmHg 78%
    02:00 +22°C° 0 mm 1 m/s 748 mmHg 80%
    03:00 +20°C° 0 mm 2 m/s 748 mmHg 81%
    04:00 +20°C° 0 mm 2 m/s 748 mmHg 82%
    05:00 +21°C° 0 mm 2 m/s 748 mmHg 80%
    06:00 +23°C° 0 mm 2 m/s 748 mmHg 78%
    07:00 +24°C° 0 mm 1 m/s 749 mmHg 75%
    08:00 +26°C° 0 mm 1 m/s 749 mmHg 66%
    09:00 +28°C° 0 mm 1 m/s 749 mmHg 57%
    10:00 +31°C° 0 mm 1 m/s 749 mmHg 48%
    11:00 +32°C° 0 mm 2 m/s 749 mmHg 43%
    12:00 +34°C° 0 mm 2 m/s 749 mmHg 38%
    13:00 +36°C° 0 mm 3 m/s 749 mmHg 33%
    14:00 +36°C° 0 mm 3 m/s 748 mmHg 32%
    15:00 +36°C° 0 mm 3 m/s 748 mmHg 32%
    16:00 +36°C° 0 mm 3 m/s 748 mmHg 31%
    17:00 +33°C° 0 mm 3 m/s 748 mmHg 35%
    18:00 +30°C° 0 mm 2 m/s 748 mmHg 40%
    19:00 +28°C° 0 mm 2 m/s 748 mmHg 45%
    20:00 +27°C° 0 mm 2 m/s 748 mmHg 46%
    21:00 +26°C° 0 mm 2 m/s 748 mmHg 47%
    22:00 +26°C° 0 mm 2 m/s 748 mmHg 48%
    23:00 +25°C° 0 mm 2 m/s 748 mmHg 48%

    28 Août, Mercredi

    Heure Température Précipitation Vent Pression Humidité
    00:00 +25°C° 0 mm 2 m/s 748 mmHg 49%
    01:00 +24°C° 0 mm 2 m/s 748 mmHg 49%
    02:00 +24°C° 0 mm 2 m/s 748 mmHg 50%
    03:00 +24°C° 0 mm 2 m/s 748 mmHg 50%
    04:00 +23°C° 0 mm 2 m/s 748 mmHg 51%
    05:00 +24°C° 0 mm 2 m/s 748 mmHg 50%
    06:00 +25°C° 0 mm 2 m/s 748 mmHg 49%
    07:00 +26°C° 0 mm 2 m/s 748 mmHg 48%
    08:00 +28°C° 0 mm 2 m/s 748 mmHg 40%
    09:00 +31°C° 0 mm 3 m/s 748 mmHg 33%
    10:00 +34°C° 0 mm 4 m/s 748 mmHg 25%
    11:00 +35°C° 0 mm 4 m/s 747 mmHg 24%
    12:00 +36°C° 0 mm 5 m/s 747 mmHg 23%
    13:00 +37°C° 0 mm 5 m/s 747 mmHg 22%
    14:00 +37°C° 0 mm 5 m/s 746 mmHg 22%
    15:00 +37°C° 0 mm 5 m/s 746 mmHg 22%
    16:00 +36°C° 0 mm 4 m/s 745 mmHg 23%
    17:00 +34°C° 0 mm 4 m/s 745 mmHg 27%
    18:00 +31°C° 0 mm 3 m/s 745 mmHg 31%
    19:00 +28°C° 0 mm 3 m/s 745 mmHg 35%
    20:00 +28°C° 0 mm 3 m/s 745 mmHg 35%
    21:00 +27°C° 0 mm 3 m/s 745 mmHg 35%
    22:00 +26°C° 0 mm 3 m/s 745 mmHg 35%
    23:00 +26°C° 0 mm 3 m/s 745 mmHg 35%

    29 Août, Jeudi

    Heure Température Précipitation Vent Pression Humidité
    00:00 +25°C° 0 mm 3 m/s 745 mmHg 34%
    01:00 +25°C° 0 mm 2 m/s 745 mmHg 34%
    02:00 +24°C° 0 mm 2 m/s 745 mmHg 34%
    03:00 +23°C° 0 mm 2 m/s 745 mmHg 34%
    04:00 +23°C° 0 mm 2 m/s 745 mmHg 34%
    05:00 +23°C° 0 mm 2 m/s 745 mmHg 34%
    06:00 +24°C° 0 mm 3 m/s 745 mmHg 33%
    07:00 +25°C° 0 mm 3 m/s 745 mmHg 33%
    08:00 +27°C° 0 mm 3 m/s 745 mmHg 29%
    09:00 +30°C° 0 mm 3 m/s 745 mmHg 25%
    10:00 +33°C° 0 mm 3 m/s 745 mmHg 21%
    11:00 +34°C° 0 mm 4 m/s 745 mmHg 20%
    12:00 +35°C° 0 mm 4 m/s 745 mmHg 18%
    13:00 +36°C° 0 mm 4 m/s 745 mmHg 17%
    14:00 +36°C° 0 mm 4 m/s 744 mmHg 17%
    15:00 +36°C° 0 mm 3 m/s 744 mmHg 18%
    16:00 +36°C° 0 mm 3 m/s 743 mmHg 18%
    17:00 +34°C° 0 mm 2 m/s 744 mmHg 22%
    18:00 +30°C° 0 mm 2 m/s 744 mmHg 25%
    19:00 +28°C° 0 mm 2 m/s 744 mmHg 29%
    20:00 +27°C° 0 mm 2 m/s 744 mmHg 30%
    21:00 +26°C° 0 mm 2 m/s 744 mmHg 31%
    22:00 +25°C° 0 mm 2 m/s 745 mmHg 32%
    23:00 +24°C° 0 mm 2 m/s 744 mmHg 34%
    Voir plus